#timestamp,LO_Frequency,Hit,StdDev 
1546376415.9,286046998.2,N
1546376435.7,286046998.5,N
1546376455.5,286046998.1,N
1546376475.4,286046998.7,N
1546376495.2,286046999.1,N
1546376515.0,286046998.8,N
1546376515.9,286046998.8,N
1546376535.8,286046998.5,N
1546376555.6,286046998.9,N
1546376575.4,286046999.5,N
1546376595.3,286046999.0,N
1546376615.1,286047001.1,N
1546376616.0,286047001.1,N
1546376635.8,286046999.0,N
1546376655.6,286046998.4,N
1546376675.5,286046999.1,N
1546376695.3,286046999.2,N
1546376715.1,286046999.5,N
1546376735.9,286046999.6,N
1546376755.7,286046996.5,Y
1546376775.5,286046996.9,P
1546376795.4,286046999.5,N
1546376815.2,286046999.0,N
1546376835.0,286046999.6,N
1546376835.9,286046999.6,N
1546376855.8,286046996.6,Y
1546376875.6,286046998.5,P
1546376895.4,286046998.3,P
1546376915.3,286046999.4,N
1546376935.1,286046999.1,N
1546376955.8,286046998.8,Y
1546376975.7,286046998.3,P
1546376995.5,286046998.4,P
1546377015.3,286046998.5,P
1546377035.2,286046998.9,Y
1546377055.0,286047000.6,P
1546377055.9,286047000.6,N
1546377075.7,286047000.4,N
1546377095.6,286047000.3,N
1546377115.4,286047000.4,N
1546377135.2,286047000.1,N
1546377155.1,286047000.6,N
1546377156.0,286047000.6,N
1546377175.8,286047000.2,N
1546377195.6,286047000.9,N
1546377215.5,286047000.4,N
1546377235.3,286047000.9,N
1546377255.1,286047002.7,Y
1546377275.9,286046999.9,P
1546377295.7,286047000.2,N
1546377315.5,286047002.2,P
1546377335.4,286047002.1,N
1546377355.2,286047001.6,N
1546377375.0,286047001.7,N
1546377375.9,286047001.7,N
1546377395.8,286047004.4,Y
1546377415.6,286047002.3,P
1546377435.4,286047002.2,P
1546377455.3,286047001.6,P
1546377475.1,286047001.8,Y
1546377476.0,286047001.8,P
1546377495.8,286047000.2,P
1546377515.7,286047000.1,N
1546377535.5,286047002.7,Y
1546377555.3,286047001.0,P
1546377575.2,286047000.9,P
1546377595.9,286047000.5,P
1546377615.7,286047000.6,N
1546377635.6,286047000.4,N
1546377655.4,286047000.3,N
1546377675.2,286047000.3,N
1546377695.1,286047002.8,Y
1546377696.0,286047002.8,P
1546377715.8,286047001.0,N
1546377735.6,286047000.7,N
1546377755.5,286047001.1,N
1546377775.3,286047000.7,N
1546377795.1,286047000.6,N
1546377815.8,286047000.6,N
1546377835.7,286047001.2,N
1546377855.5,286047000.6,N
1546377875.3,286047000.6,N
1546377895.2,286047000.9,N
1546377915.9,286047000.6,N
1546377935.7,286047000.5,N
1546377955.6,286047000.4,N
1546377975.4,286047000.6,N
1546377995.2,286047000.8,N
1546378015.1,286047001.0,N
1546378016.0,286047001.0,N
1546378035.8,286046999.9,N
1546378055.6,286047000.2,N
1546378075.5,286046999.7,N
1546378095.3,286047002.1,Y
1546378115.1,286047000.3,P
1546378135.9,286047000.8,P
1546378155.7,286047000.2,N
1546378175.5,286047000.9,Y
1546378195.4,286046998.7,P
1546378215.2,286047001.1,N
1546378235.0,286047001.1,N
1546378235.9,286047001.1,N
1546378255.7,286047000.8,N
1546378275.6,286047000.8,N
1546378295.4,286047001.1,N
1546378315.2,286046998.3,N
1546378335.1,286047001.1,N
1546378336.0,286047001.1,N
1546378355.8,286046998.1,N
1546378375.6,286046998.7,N
1546378395.5,286046998.1,N
1546378415.3,286046998.7,N
1546378435.1,286047001.1,N
1546378455.9,286047001.0,N
1546378475.7,286047001.1,N
1546378495.5,286047000.6,N
1546378515.4,286047000.8,N
1546378535.2,286047000.4,N
1546378555.0,286046999.8,N
1546378555.9,286046999.8,N
1546378575.7,286047000.9,N
1546378595.6,286046999.9,N
1546378615.4,286046999.9,N
1546378635.2,286047000.6,N
1546378655.1,286047000.5,N
1546378656.0,286047000.5,N
1546378675.8,286047000.4,N
1546378695.6,286047001.0,N
1546378715.5,286047002.4,N
1546378735.3,286047001.9,N
1546378755.1,286047002.4,N
1546378775.9,286047002.8,N
1546378795.7,286047000.3,N
1546378815.5,286046999.7,N
1546378835.4,286047002.7,N
1546378855.2,286047002.4,N
1546378875.0,286047002.3,N
1546378875.9,286047002.3,N
1546378895.8,286047002.6,N
1546378915.6,286047002.0,N
1546378935.4,286047002.2,N
1546378955.3,286047004.4,Y
1546378975.1,286047002.0,P
1546378976.0,286047002.0,P
1546378995.8,286047002.6,P
1546379015.7,286047001.7,Y
1546379035.5,286047001.0,P
1546379055.3,286047000.1,N
1546379075.2,286046999.8,N
1546379095.9,286047002.3,N
1546379115.7,286047002.5,N
1546379135.5,286047002.1,N
1546379155.4,286047002.5,N
1546379175.2,286047001.7,N
1546379195.0,286047001.8,N
1546379195.9,286047001.8,N
1546379215.8,286047003.9,Y
1546379235.6,286046999.7,P
1546379255.4,286047002.0,N
1546379275.3,286047001.9,N
1546379295.1,286047004.4,Y
1546379315.8,286047002.1,P
1546379335.7,286047002.1,P
1546379355.5,286047001.9,P
1546379375.3,286047004.0,Y
1546379395.2,286047002.4,P
1546379415.0,286047002.5,P
1546379415.9,286047002.5,P
1546379435.8,286047001.8,Y
1546379455.6,286046999.9,P
1546379475.4,286046999.8,N
1546379495.2,286046999.7,N
1546379515.1,286047000.2,N
1546379516.0,286047000.2,N
1546379535.8,286047002.1,N
1546379555.6,286047001.7,N
1546379575.5,286047001.7,N
1546379595.3,286047001.9,N
1546379615.1,286047002.6,N
1546379635.9,286047002.2,N
1546379655.7,286047001.5,N
1546379675.5,286047001.5,N
1546379695.4,286047001.3,N
1546379715.2,286047004.0,Y
1546379735.0,286047001.9,P
1546379735.9,286047001.9,P
1546379755.8,286047002.2,P
1546379775.6,286047004.4,Y
1546379795.4,286047002.1,P
1546379815.3,286047002.1,P
1546379835.1,286047001.6,P
1546379855.8,286047001.8,Y
1546379875.7,286047000.3,P
1546379895.5,286047002.7,P
1546379915.3,286047002.3,N
1546379935.2,286047004.3,Y
1546379955.9,286047000.2,P
1546379975.7,286047002.5,P
1546379995.6,286047004.4,P
